map of ROK home
Great Circle Mapper logo
ROK - Airport
Location
City:  Rockhampton, Queensland, Australia
ICAO / IATA:YBRK / ROK

Details
Type:Airport (Aerodrome, Airfield)
Use:Public/Civil
Latitude:23°22'55"S (-23.381943)
Longitude:150°28'31"E (150.475278)
Datum:WGS 1984
Elevation:34 ft (10 m)
Variation:9.23°E (WMM2015 magnetic declination)
-0.01° annual change
Runways:2
Longest:8622 × 148 ft (2628 × 45 m), paved

Time
Time Zone:UTC+10
Local Time:

Weather
METAR:YBRK 251900Z AUTO 15005KT 9999 // BKN045 BKN052 18/13 Q1025
TAF:YBRK 251600Z 2518/2618 18005KT 9999 -DZ SCT020 BKN050
FM252300 11012KT 9999 SCT030
FM261100 15008KT 9999 SCT020
TEMPO 2518/2522 2000 DZ BKN010
RMK

Related Locations
Nearby:
Farthest:NTO: 11922 mi / 19187 km
Ponta do Sol [Agostinho Neto], Ribeira Grande, Santo Antão, CV

Find:

   beyond  
but within

Other Information
Maps:
NOTAMs:
Links:
Sources:

  
flag of Australia
flag of Queensland
  

Sectional Chart

Flight Planning
at skyvector.com

Satellite Image

Google Maps Satellite View

 

Copyright © 2004-2015 Karl L. Swartz. All rights reserved.
The Great Circle Mapper name and logo are trademarks of the Great Circle Mapper.
All other trademarks mentioned herein belong to their respective owners.
Please see credits for attibutions and further copyright information.

  Follow gcmap on Facebook Follow gcmap on Twitter Follow gcmap on Google+

hCard Microformat

Geo Microformat